Location: Fontevrault
(47.1823°N, 0.0493°E)
Time: 06:35:49
(UTC+00:00)

Cosmos 2263 Rocket - Pass Details

Date: 28 October 2021
Orbit: 825 x 847 km, 71.0° (Epoch: 06 December)

Event Time Altitude Azimuth Distance (km) Brightness Sun altitude
Rises 17:24:02 0° 326° (NNW) 3,372 5.6 -6.5°
Reaches altitude 10° 17:26:37 10° 319° (NW) 2,435 5.0 -6.9°
Maximum altitude 17:31:41 37° 253° (WSW) 1,258 3.9 -7.8°
Drops below altitude 10° 17:36:44 10° 188° (S) 2,423 4.8 -8.6°
Sets 17:39:19 0° 180° (S) 3,355 5.5 -9.0°
